Regional Weather Roundup
Issued by NWS Columbia, SC

Home | Current Version | Previous Version | Text Only | Print | Product List | Glossary On
Versions: 1 2 3 4 5 6 7 8 9 10 11 12 13 14 15 16 17 18 19 20 21 22 23 24 25 26 27 28 29 30 31 32 33 34 35 36 37 38 39 40 41 42 43 44 45 46 47 48 49 50
000
ASUS42 KCAE 010010
RWRCAE
REGIONAL WEATHER ROUNDUP
NATIONAL WEATHER SERVICE COLUMBIA SC
800 PM EDT SAT APR 30 2016

NOTE: "FAIR" INDICATES FEW OR NO CLOUDS BELOW 12,000 FEET WITH NO
SIGNIFICANT WEATHER AND/OR OBSTRUCTIONS TO VISIBILITY.

NOT ALL STATIONS ARE QUALITY CONTROLLED BY THE NATIONAL
WEATHER SERVICE. USE DATA WITH CAUTION...ESPECIALLY
DEWPOINT OBSERVATIONS.

SCZ001>056-GAZ040-063>065-077-010100-
...UPSTATE SOUTH CAROLINA...

CITY           SKY/WX    TMP DP  RH WIND       PRES   REMARKS
ANDERSON       CLOUDY    67  65  93 NE6       29.98R
6HR MIN TEMP:  67; 6HR MAX TEMP:  87; 6HR PCP:  0.57;

LIBERTY          N/A     66  64  93 N7        29.98F
6HR MIN TEMP:  13; 6HR MAX TEMP:  86;

SPARTANBURG    CLOUDY    66  63  88 E6        30.00F
CLEMSON        CLOUDY    69  64  84 N7        29.99S
6HR MIN TEMP:  69; 6HR MAX TEMP:  83; 6HR PCP:  0.11;

GREENVILLE     CLOUDY    68  65  90 NE9       30.02R
6HR MIN TEMP:  68; 6HR MAX TEMP:  81; 6HR PCP:  0.30;

GREENWOOD      MOCLDY    73  64  73 N7        30.00R
6HR MIN TEMP:  73; 6HR MAX TEMP:  89;

GREER          CLOUDY    65  63  93 NE8       30.00F
6HR MIN TEMP:  64; 6HR MAX TEMP:  81; 6HR PCP:  0.71;

ROCK HILL        N/A    N/A N/A N/A MISG      30.03R THUNDER
6HR MIN TEMP:  70; 6HR MAX TEMP:  83; 6HR PCP:  0.11;

CHESTER        CLOUDY    70  68  94 N8        30.02R
LAURENS        MOCLDY    70  66  88 NE10      30.00R


...CENTRAL SOUTH CAROLINA...

CITY           SKY/WX    TMP DP  RH WIND       PRES   REMARKS
COLUMBIA APT   MOCLDY    82  61  48 SE13      29.97S
6HR MIN TEMP:  82; 6HR MAX TEMP:  89;

COLUMBIA OWENS PTCLDY    81  61  50 VRB7      29.99R
6HR MIN TEMP:  81; 6HR MAX TEMP:  89;

MCENTIRE ANGB  CLOUDY    77  66  68 SE8       30.00R
6HR MIN TEMP:  77; 6HR MAX TEMP:  86;

ORANGEBURG     MOCLDY    78  61  55 SE9       30.01R
6HR MIN TEMP:  78; 6HR MAX TEMP:  88;

SUMTER SHAW    CLOUDY    78  64  63 SE10      29.99R
6HR MIN TEMP:  78; 6HR MAX TEMP:  85;

NEWBERRY       CLOUDY    81  63  54 SE6       30.00R
AIKEN          FAIR      79  55  44 SE9       30.03R
BARNWELL       FAIR      81  66  61 SE10      29.99R
CAMDEN         FAIR      73  68  83 E7        30.01R
LANCASTER      CLOUDY    75  68  78 E14G20    29.99R
WINNSBORO      CLOUDY    79  61  53 SE8       29.99R


...EASTERN AND COASTAL SOUTH CAROLINA...

CITY           SKY/WX    TMP DP  RH WIND       PRES   REMARKS
MYRTLE BEACH   MOCLDY    68  57  68 E17G24    30.10S
N MYRTLE BCH   CLOUDY    68  61  78 E15       30.09R
6HR MIN TEMP:  68; 6HR MAX TEMP:  74;

CONWAY         FAIR      66  63  88 E6        30.09R
MARION         FAIR      70  64  83 SE8       30.07R
HARTSVILLE     FAIR     N/A N/A N/A E9G17     30.02S
FLORENCE       CLOUDY    74  65  73 SE12      30.05S
6HR MIN TEMP:  74; 6HR MAX TEMP:  82;

CHARLESTON APT MOCLDY    76  68  76 E16       30.04R
6HR MIN TEMP:  76; 6HR MAX TEMP:  83;

MOUNT PLEASANT MOCLDY    73  70  88 E3        30.05R
WALTERBORO     CLOUDY    77  66  69 SE7       30.03R
BEAUFORT       PTCLDY    77  70  79 E6        30.03R
6HR MIN TEMP:  77; 6HR MAX TEMP:  86;



...EASTERN GEORGIA...

CITY           SKY/WX    TMP DP  RH WIND       PRES   REMARKS
AUGUSTA BUSH F CLOUDY    79  61  53 SE10      29.95R
6HR MIN TEMP:  79; 6HR MAX TEMP:  90;

AUGUSTA DANIEL CLOUDY    82  60  47 SE13      29.98R
6HR MIN TEMP:  82; 6HR MAX TEMP:  91;

THOMSON        PTCLDY    83  64  51 SE5       29.99S
6HR MIN TEMP:  83; 6HR MAX TEMP:  91;

WASHINGTON     FAIR      77  68  73 CALM      29.96R
CLAXTON        FAIR      78  70  74 E8        29.99R
6HR MIN TEMP:  78; 6HR MAX TEMP:  89;

SYLVANIA       CLOUDY    79  69  70 SE7       30.01R
6HR MIN TEMP:  79; 6HR MAX TEMP:  89;

STATESBORO     CLOUDY    82  70  68 SE6       29.99R
6HR MIN TEMP:  82; 6HR MAX TEMP:  92;

SAVANNAH       CLOUDY    77  69  76 E10       30.01R
6HR MIN TEMP:  77; 6HR MAX TEMP:  87;



...SOUTHERN NORTH CAROLINA...

CITY           SKY/WX    TMP DP  RH WIND       PRES   REMARKS
CHARLOTTE      TSTM      66  63  88 W6        30.07R
6HR MIN TEMP:  67; 6HR MAX TEMP:  79; 6HR PCP:  0.23;

MONROE         CLOUDY    66  63  90 NE8       30.02S
6HR MIN TEMP:  66; 6HR MAX TEMP:  78; 6HR PCP:  0.02;

WADESBORO      CLOUDY    72  60  65 E9        30.04S
6HR MIN TEMP:  72; 6HR MAX TEMP:  80;

ROCKINGHAM     CLOUDY    69  62  79 E8        30.05S
6HR MIN TEMP:  69; 6HR MAX TEMP:  76;

RUTHERFORDTON  CLOUDY   N/A N/A N/A NE6       30.07S HAZE
                                      6HR PCP:  0.28;

ASHEVILLE      CLOUDY    63  59  87 SE5       30.07R
6HR MIN TEMP:  63; 6HR MAX TEMP:  76; 6HR PCP:  0.05;


$$



USA.gov is the U.S. government's official web portal to all federal, state and local government web resources and services.